This is the latest recevied weather packets stored in our database for station/object KCKV. If no packets are shown the sender has not sent any weather packets the latest 10 day(s).
| Time | Temp. | Humidity | Pressure | Rain* | Wind** | Luminosity | Snow |
|---|---|---|---|---|---|---|---|
| 1778033607 | 17.78° C | 88% | 1006.8 hPa | - | - | - | - |
| 1778033008 | 17.78° C | 88% | 1006.8 hPa | - | - | - | - |
| 1778032408 | 17.78° C | 82% | 1007.1 hPa | - | - | - | - |
| 1778031807 | 17.78° C | 82% | 1007.1 hPa | - | - | - | - |
| 1778031208 | 17.78° C | 82% | 1007.1 hPa | - | - | - | - |
| 1778030606 | 17.78° C | 82% | 1007.1 hPa | - | - | - | - |
| 1778030008 | 17.78° C | 82% | 1007.1 hPa | - | - | - | - |
| 1778029405 | 17.78° C | 82% | 1007.1 hPa | - | - | - | - |
| 1778028809 | 17.78° C | 77% | 1007.5 hPa | - | - | - | - |
| 1778028207 | 17.78° C | 77% | 1007.5 hPa | - | - | - | - |
| 1778027606 | 17.78° C | 77% | 1007.5 hPa | - | - | - | - |
| 1778027005 | 17.78° C | 77% | 1007.5 hPa | - | - | - | - |
| 1778026411 | 17.78° C | 77% | 1007.5 hPa | - | - | - | - |
| 1778025809 | 17.78° C | 77% | 1007.5 hPa | - | - | - | - |
| 1778025209 | 17.78° C | 82% | 1008.1 hPa | - | - | - | - |
| 1778024605 | 17.78° C | 82% | 1008.1 hPa | - | - | - | - |
| 1778024009 | 17.78° C | 82% | 1008.1 hPa | - | - | - | - |
| 1778023410 | 17.78° C | 77% | 1007.8 hPa | - | - | - | - |
| 1778022810 | 17.78° C | 77% | 1008.1 hPa | - | - | - | - |
| 1778022326 | 17.78° C | 77% | 1008.1 hPa | - | - | - | - |
| 1778021611 | - | - | 1005.1 hPa | - | - | - | - |
| 1778021006 | - | - | 1005.1 hPa | - | - | - | - |
| 1778020408 | 18.89° C | 68% | 1005.1 hPa | - | - | - | - |
| 1778019806 | 21.67° C | 53% | 1008.1 hPa | - | - | - | - |
| 1778019207 | 21.67° C | 53% | 1008.1 hPa | - | - | - | - |
* Rain since midnight (hover to see other rain measurements)
** Current wind speed in m/s (hover to see current wind gust speed)